Location: Suburban Lights Observatory
(43.1572°N, 89.2764°W)
Time: 22:41:55
(UTC-06:00)

Daily predictions for brighter satellites

Satellite Brightness Start Highest point End
(mag) Time Altitude Azimuth Time Altitude Azimuth Time Altitude Azimuth
Thor Agena Rocket 3.8 17:13:32 10° NNE 17:18:42 54° E 17:23:45 10° S
Cosmos 1151 Rocket 4.1 17:15:40 10° NNE 17:19:04 22° ENE 17:22:27 10° SE
Cosmos 1634 Rocket 4.4 17:13:34 10° N 17:19:20 39° ENE 17:25:02 10° SE
SPOT 3 Rocket 3.5 17:14:15 10° SSE 17:19:21 69° ENE 17:24:30 10° N
MSX 3.9 17:14:06 10° SSE 17:19:42 61° ENE 17:25:21 10° N
AQUARIUS 4.1 17:15:38 10° SSE 17:20:07 76° ENE 17:24:37 10° N
Cosmos 1076 Rocket 3.8 17:16:31 10° SSW 17:20:44 73° W 17:25:02 10° N
Cosmos 1814 Rocket 4.1 17:16:09 10° SSW 17:21:29 86° ESE 17:26:53 10° NNE
Cosmos 1484 Rocket 3.4 17:19:12 10° SE 17:22:45 34° ENE 17:26:23 10° N
Cosmos 1125 Rocket 4.2 17:18:11 10° N 17:22:48 31° ENE 17:27:22 10° ESE
COSMOS 2428 2.8 17:18:02 10° SSW 17:23:42 68° ESE 17:29:24 10° NNE
Cosmos 990 Rocket 4.0 17:18:42 10° NNW 17:24:00 82° ENE 17:29:15 10° SSE
Molniya-1 4.3 17:22:15 10° SSW 17:24:47 46° ESE 17:29:07 10° NE
Cosmos 1500 Rocket 4.3 17:21:32 10° SSE 17:25:20 31° E 17:29:11 10° NNE
Cosmos 2237 Rocket 3.3 17:23:08 10° SSE 17:27:32 24° ESE 17:32:00 10° NE
BREEZE-M DEB (TANK) 3.4 17:18:18 10° NW 17:28:47 79° SW 17:32:12 10° SE
Cosmos 2237 4.3 17:23:10 10° SSW 17:28:52 90° SE 17:34:37 10° NNE
SJ-12 4.3 17:25:06 10° S 17:29:14 71° W 17:33:22 10° NNW
SL-16 R/B 4.0 17:31:29 10° ESE 17:32:37 11° E 17:33:45 10° E
Cosmos 2221 4.4 17:28:51 10° NNW 17:32:43 34° W 17:36:33 10° SSW
ALOS 4.1 17:31:20 10° E 17:32:53 12° ENE 17:34:26 10° NE
Cosmos 1300 3.7 17:30:22 10° NNE 17:33:39 26° ENE 17:36:55 10° SE
IDEFIX/ARIANE 42P 3.0 17:30:17 10° S 17:35:27 69° WSW 17:40:42 10° NNW
Cosmos 1726 3.0 17:32:29 10° NNE 17:35:46 28° ENE 17:39:04 10° SE
Cosmos 841 Rocket 3.5 17:34:51 10° S 17:40:04 70° ESE 17:45:21 10° NNE
Lacrosse 5 rocket 2.4 17:37:48 10° NNW 17:40:56 24° NNE 17:43:38 13° E
Cosmos 371 Rocket 3.7 17:36:26 10° S 17:40:58 43° ESE 17:45:32 10° NNE
BREEZE-M DEB (TANK) 4.0 17:40:01 10° S 17:41:42 16° SE 17:43:03 11° ESE
NOSS 0 Rocket 4.4 17:36:28 10° S 17:42:12 41° ESE 17:47:57 10° NE
CZ-4 R/B 2.6 17:40:08 10° S 17:43:51 44° W 17:47:36 10° NNW
OTV 4 2.1 17:43:50 10° WSW 17:46:26 28° S 17:49:02 10° SE
CENTAUR R/B 2.7 17:44:30 10° SW 17:50:36 76° NW 17:57:33 10° NE
SMAP 4.1 17:49:09 10° S 17:53:39 49° W 17:58:11 10° NNW
Resurs 01 Rocket 3.1 17:54:23 16° ENE 17:55:10 17° ENE 17:57:58 10° NNE
Cosmos 2084 3.5 17:51:43 10° SSW 17:55:28 47° ESE 17:58:07 17° NE
Meteor 2-2 Rocket 4.3 17:51:46 10° N 17:57:26 86° W 18:03:04 10° S
Cosmos 1844 Rocket 3.0 17:52:54 10° NNW 17:58:34 71° WSW 18:04:10 10° SSE
Meteor 1-28 Rocket 3.6 17:55:34 10° NNE 17:59:07 41° E 18:02:38 10° S
Cosmos 44 Rocket 3.4 17:55:00 10° SSW 18:00:04 64° ESE 18:04:26 14° NE
Lacrosse 5 3.5 17:56:42 10° WNW 18:00:46 24° NNW 18:04:47 10° NNE
CZ-3A R/B 3.1 17:55:49 10° NW 18:01:02 44° NNE 18:04:51 15° E
Cosmos 1328 3.7 17:57:24 10° S 18:01:19 63° E 18:05:13 10° NNE
COSMO-SKYMED 1 2.5 17:57:22 10° NNE 18:01:44 69° ESE 18:06:02 10° S
Aureole 2 Rocket 3.8 18:00:49 10° SSE 18:03:47 24° E 18:04:38 22° E
YAOGAN 1 4.0 17:59:53 10° S 18:03:59 41° W 18:08:06 10° NNW
CZ-2C R/B 4.2 17:59:41 10° SSW 18:04:18 36° W 18:08:47 10° NNW
Cosmos 2228 Rocket 4.0 18:03:24 10° NNW 18:07:42 51° W 18:11:59 10° S
Cosmos 836 Rocket 4.4 18:04:26 10° SSW 18:09:39 81° ESE 18:14:57 10° NNE
Cosmos 2279 Rocket 4.0 18:05:40 10° N 18:11:48 58° E 18:17:54 10° SSE
Cosmos 2360 Rocket 4.1 18:09:13 10° WSW 18:13:50 25° NW 18:18:28 10° N
SJ-6B 3.2 18:10:08 10° SE 18:13:58 42° ENE 18:17:52 10° N
Cosmos 1980 3.7 18:08:59 10° S 18:14:36 65° ESE 18:19:45 13° NNE
Cosmos 2058 2.8 18:17:07 10° S 18:21:10 60° E 18:24:55 12° NNE
FENGYUN 3A 4.1 18:20:59 10° SE 18:25:51 37° ENE 18:30:47 10° N
Cosmos 304 Rocket 4.3 18:22:36 10° SSE 18:26:59 37° ESE 18:28:08 32° ENE
Cosmos 2333 Rocket 2.2 18:21:24 10° SSW 18:27:03 86° WNW 18:32:21 12° NNE
Cosmos 1703 3.6 18:25:30 10° SSE 18:29:09 40° E 18:29:16 40° E
Cosmos 2180 Rocket 4.4 18:23:44 10° N 18:29:52 66° E 18:36:01 10° SSE
Nadezhda 4 Rocket 4.3 18:27:45 10° SSE 18:33:32 42° E 18:39:24 10° NNE
Meteor 2-10 3.9 18:29:28 10° N 18:34:34 86° ENE 18:39:46 10° S
Cosmos 372 Rocket 3.8 18:29:49 10° NNW 18:34:57 88° ENE 18:40:03 10° SSE
ATLAS 5 CENTAUR R/B 4.4 18:34:59 10° N 18:35:32 10° NNE 18:36:05 10° NNE
METEOR-M 4.1 18:32:54 10° SSE 18:38:16 87° ENE 18:43:40 10° NNW
Cosmos 2219 Rocket 2.9 18:35:00 10° SW 18:40:30 54° WNW 18:46:00 10° NNE
Meteor 1-27 4.3 18:35:40 10° NNW 18:41:29 83° W 18:47:18 10° S
Cosmos 1340 Rocket 2.6 18:39:57 10° S 18:43:54 83° E 18:45:23 37° NNE
BREEZE-M DEB (TANK) 2.4 18:42:01 10° WSW 18:43:55 42° W 18:43:55 42° W
Cosmos 2278 Rocket 2.5 18:39:25 10° NNW 18:45:05 67° WSW 18:50:42 10° SSE
Cosmos 2151 3.8 18:43:04 10° SSW 18:47:09 49° WNW 18:51:15 10° N
Abrixas 4.2 18:45:43 10° SW 18:47:20 25° SSW 18:47:20 25° SSW
Cosmos 540 Rocket 3.7 18:43:20 10° SSW 18:48:28 68° WNW 18:52:40 16° NNE
Cosmos 1092 Rocket 4.3 18:45:00 10° SSE 18:50:50 42° E 18:51:47 39° ENE
USA 215 3.6 18:46:42 10° SE 18:53:12 66° SW 18:59:44 10° NW
Cosmos 1626 3.6 18:50:49 10° S 18:52:37 27° S 18:52:37 27° S
Cosmos 1805 Rocket 3.5 18:50:51 10° S 18:55:18 87° E 18:57:08 35° N
Timation 1 Rocket 4.3 18:59:24 10° NNW 19:05:28 87° WSW 19:10:29 15° SSE
BREEZE M DEB (TANK) 4.1 19:05:00 10° WNW 19:05:48 18° W 19:05:48 18° W
ALOS 2.2 19:04:56 10° SSE 19:09:36 87° WSW 19:14:18 10° NNW
CZ-4C R/B 4.5 19:06:20 10° NNW 19:09:52 15° NNE 19:09:59 15° NNE
Cosmos 2237 Rocket 2.9 19:05:48 10° SW 19:11:14 50° WNW 19:14:53 21° N
Cosmos 44 4.1 19:08:26 10° SW 19:13:33 51° NW 19:15:09 37° N
Spot 2 Rocket 3.4 19:10:01 10° SSE 19:15:04 85° WSW 19:20:09 10° NNW
SL-16 R/B 2.0 19:10:06 10° SSW 19:15:44 81° ESE 19:16:19 71° NE
Cosmos 2369 Rocket 4.3 19:12:14 10° N 19:13:01 13° N 19:13:01 13° N
Sich 1 3.8 19:14:49 10° S 19:17:57 45° SSW 19:17:57 45° SSW
Lacrosse 5 rocket 2.3 19:16:36 10° NW 19:19:24 42° W 19:19:24 42° W
OTV 4 3.8 19:20:22 10° SW 19:20:41 11° SW 19:20:41 11° SW
Cosmos 1538 Rocket 4.0 19:17:56 10° SSW 19:22:42 73° S 19:22:42 73° S
Cosmos 2297 3.9 19:18:29 10° NNW 19:24:09 69° WSW 19:27:01 30° S
Resurs 01 Rocket 2.5 19:31:56 47° WNW 19:31:56 47° WNW 19:35:36 10° NNW
USA 229 DEB 4.3 19:27:05 10° S 19:31:47 41° SSE 19:31:47 41° SSE
USA 229 4.3 19:27:12 10° S 19:31:49 40° SSE 19:31:49 40° SSE
CENTAUR R/B 4.4 19:37:29 10° WNW 19:42:34 23° NNW 19:45:38 18° N
Lacrosse 5 4.1 19:42:06 10° NW 19:44:00 15° NNW 19:44:00 15° NNW
H-2A ROCKET BODY 4.2 19:51:24 10° WSW 20:01:37 24° SSW 20:02:29 23° SSW
